DW3426 Tranby NO current weather conditions

sailwx.info

Wind from 339 at 1 knots

Air temperature 8.9° C
Dewpoint 5.6° C

Last reported at 2019-Aug-22 05:01 UTC.
Time now 2019-Aug-22 05:18 UTC

Location: N 59°49' E 010°16'.
View on Google Maps.

See reports from other nearby stations

  
Tides and Currents Weather Stations Pressure Air Temp Water Temp Dewpoint Dewpoint Depression Visibility Wind Speed Wind Dir Waves Ship Positions
date/time (UTC)wind fromknots sea level pressurealtimeterstation pressurevisibilityair tempwater tempwave heightnotes
2019-Aug-22 05:01 339 1 8.9
2019-Aug-22 04:45 339 1 8.9
2019-Aug-22 04:30 339 2 8.9
2019-Aug-22 04:15 338 2 8.9
2019-Aug-22 04:00 335 2 8.9
2019-Aug-22 03:45 348 3 8.9
2019-Aug-22 03:30 355 1 8.3
2019-Aug-22 03:15 355 8.3
2019-Aug-22 03:00 355 8.3
2019-Aug-22 02:45 355 8.3
2019-Aug-22 02:30 355 0 8.3
2019-Aug-22 02:15 355 0 8.3
2019-Aug-22 02:00 355 0 8.3
2019-Aug-22 01:45 355 0 8.3
2019-Aug-22 01:31 355 8.9
2019-Aug-22 01:16 355 8.9
2019-Aug-22 01:02 355 9.4
2019-Aug-22 00:46 355 9.4
2019-Aug-22 00:31 355 10.0
2019-Aug-22 00:17 355 10.0
2019-Aug-22 00:01 355 10.0
2019-Aug-21 23:47 355 10.6
2019-Aug-21 23:31 355 10.6
2019-Aug-21 23:16 355 11.1
2019-Aug-21 23:00 355 11.7
2019-Aug-21 22:45 355 11.7
2019-Aug-21 22:31 355 12.2
2019-Aug-21 22:16 355 12.2
2019-Aug-21 22:01 355 12.2
2019-Aug-21 21:46 350 1 12.2
2019-Aug-21 21:31 350 2 12.2
2019-Aug-21 21:15 338 0 12.8
2019-Aug-21 21:00 338 12.8
2019-Aug-21 20:45 338 1 12.8
2019-Aug-21 20:31 335 0 13.3
2019-Aug-21 20:15 335 1 13.3
2019-Aug-21 20:00 335 0 13.3
2019-Aug-21 19:45 330 1 13.9
2019-Aug-21 19:31 329 0 14.4
2019-Aug-21 19:15 010 1 15.0
2019-Aug-21 19:00 015 2 15.6
2019-Aug-21 18:45 342 1 16.1
2019-Aug-21 18:30 342 2 16.1
2019-Aug-21 18:15 355 1 17.2
2019-Aug-21 18:01 355 2 17.8
2019-Aug-21 17:45 355 1 18.3
2019-Aug-21 17:30 337 1 18.9
2019-Aug-21 17:15 328 2 18.9
2019-Aug-21 17:01 338 3 18.9
2019-Aug-21 16:45 331 4 19.4
2019-Aug-21 16:30 340 2 19.4
2019-Aug-21 16:16 347 1 19.4
2019-Aug-21 16:00 020 2 20.0
2019-Aug-21 15:46 045 0 20.6
2019-Aug-21 15:30 355 1 20.6
2019-Aug-21 15:15 324 2 20.6
2019-Aug-21 15:00 017 1 20.6
2019-Aug-21 14:45 040 1 20.6
2019-Aug-21 14:30 031 1 20.6
2019-Aug-21 14:15 032 1 21.1
2019-Aug-21 14:00 034 1 21.1
2019-Aug-21 13:45 355 2 20.6
2019-Aug-21 13:30 058 0 19.4
2019-Aug-21 13:15 067 0 19.4
2019-Aug-21 13:00 075 0 20.0
2019-Aug-21 12:45 076 0 20.0
2019-Aug-21 12:30 075 1 19.4
2019-Aug-21 12:15 074 1 19.4
2019-Aug-21 12:04 053 1 19.4
2019-Aug-21 11:46 027 1 19.4
2019-Aug-21 11:32 082 1 18.3
2019-Aug-21 11:17 074 2 18.3
2019-Aug-21 11:01 128 1 17.8
2019-Aug-21 10:47 080 1 16.7
2019-Aug-21 10:31 143 1 16.7
2019-Aug-21 10:16 134 0 16.1
2019-Aug-21 10:01 126 0 15.6
2019-Aug-21 09:46 126 0 15.6
2019-Aug-21 09:30 126 0 15.0
2019-Aug-21 09:15 126 2 15.0
2019-Aug-21 09:00 146 1 14.4
2019-Aug-21 08:46 153 2 14.4
2019-Aug-21 08:30 140 1 13.9
2019-Aug-21 08:15 148 2 13.3
2019-Aug-21 08:00 147 2 13.3
2019-Aug-21 07:45 150 2 12.8
2019-Aug-21 07:30 150 1 12.2
2019-Aug-21 07:15 150 1 12.2
2019-Aug-21 07:00 150 0 11.7
2019-Aug-21 06:45 150 1 11.1
2019-Aug-21 06:30 150 1 11.1
2019-Aug-21 06:15 150 1 10.6
2019-Aug-21 06:00 150 3 10.6
2019-Aug-21 05:45 146 2 10.6
2019-Aug-21 05:30 151 4 10.6
2019-Aug-21 05:15 148 5 10.6
2019-Aug-21 05:02 150 6 10.6
2019-Aug-21 04:46 136 5 10.6
2019-Aug-21 04:32 153 3 10.6
2019-Aug-21 04:16 150 3 10.6
2019-Aug-21 04:01 150 2 11.1
2019-Aug-21 03:46 150 1 11.1
2019-Aug-21 03:31 180 11.1
2019-Aug-21 03:16 186 0 11.1
2019-Aug-21 03:01 146 1 11.1
2019-Aug-21 02:31 143 3 11.1
2019-Aug-21 02:16 146 2 11.1
2019-Aug-21 02:01 154 2 11.1
2019-Aug-21 01:46 174 11.1
2019-Aug-21 01:31 174 11.1
2019-Aug-21 01:15 174 0 11.7
2019-Aug-21 01:00 175 0 11.1
2019-Aug-21 00:46 169 0 11.1
2019-Aug-21 00:30 338 11.7
2019-Aug-21 00:15 338 11.7
2019-Aug-21 00:00 338 11.7
2019-Aug-20 23:46 338 11.7
2019-Aug-20 23:30 338 12.2
2019-Aug-20 23:15 338 0 12.2
2019-Aug-20 23:00 338 0 12.2
2019-Aug-20 22:45 336 1 12.2
2019-Aug-20 22:30 344 1 12.2
2019-Aug-20 22:15 023 2 12.2
2019-Aug-20 22:00 342 1 12.2
2019-Aug-20 21:45 355 0 12.8
2019-Aug-20 21:30 360 12.8
2019-Aug-20 21:15 360 0 12.8
2019-Aug-20 21:00 346 2 13.3
2019-Aug-20 20:45 010 0 13.3
2019-Aug-20 20:30 022 0 13.3
2019-Aug-20 20:02 351 1 13.9
2019-Aug-20 19:46 005 2 13.9
2019-Aug-20 19:32 360 3 14.4
2019-Aug-20 19:18 355 3 14.4
2019-Aug-20 19:01 348 2 14.4
2019-Aug-20 18:46 360 2 14.4
2019-Aug-20 18:32 355 2 15.0
2019-Aug-20 18:16 355 3 15.0
2019-Aug-20 18:01 355 4 15.6
2019-Aug-20 17:46 005 4 16.1
2019-Aug-20 17:32 360 4 16.7
2019-Aug-20 17:17 355 4 16.7
2019-Aug-20 17:01 346 4 17.2
2019-Aug-20 16:46 005 4 17.2
2019-Aug-20 16:32 360 3 17.8
2019-Aug-20 16:16 031 3 18.3
2019-Aug-20 16:00 047 3 18.3
2019-Aug-20 15:46 333 4 18.3
2019-Aug-20 15:31 044 4 18.3
2019-Aug-20 15:16 080 6 18.3
2019-Aug-20 15:01 331 5 18.3
2019-Aug-20 14:45 052 4 18.3
2019-Aug-20 14:31 360 4 18.3
2019-Aug-20 14:16 043 5 18.3
2019-Aug-20 14:01 360 5 18.3
2019-Aug-20 13:46 327 6 17.2
2019-Aug-20 13:30 355 5 17.8
2019-Aug-20 13:15 351 5 17.2
2019-Aug-20 13:01 058 3 17.8
2019-Aug-20 12:46 067 4 18.3
2019-Aug-20 12:30 036 5 18.3
2019-Aug-20 12:15 018 6 18.3
2019-Aug-20 12:00 351 4 18.3
2019-Aug-20 11:46 051 3 18.3
2019-Aug-20 11:31 046 2 18.3
2019-Aug-20 11:15 048 2 17.8
2019-Aug-20 11:00 059 2 17.8
2019-Aug-20 10:46 074 2 17.8
2019-Aug-20 10:30 082 3 17.2
2019-Aug-20 10:15 063 3 16.7
2019-Aug-20 10:00 341 0 15.6
2019-Aug-20 09:45 072 2 15.6
2019-Aug-20 09:31 042 2 15.6
2019-Aug-20 09:15 360 1 15.6
2019-Aug-20 09:00 041 1 15.0
2019-Aug-20 08:47 049 1 14.4
2019-Aug-20 08:32 024 3 13.9
2019-Aug-20 08:16 360 5 13.9
2019-Aug-20 08:01 028 4 13.3
2019-Aug-20 07:46 348 3 12.8
2019-Aug-20 07:31 335 4 12.2
2019-Aug-20 07:16 325 4 12.2
2019-Aug-20 07:01 360 2 11.7
2019-Aug-20 06:46 344 2 11.1
2019-Aug-20 06:31 351 3 11.1
2019-Aug-20 06:15 349 3 11.1
2019-Aug-20 06:01 348 3 10.6
2019-Aug-20 05:46 360 3 10.6
2019-Aug-20 05:31 344 2 10.6
2019-Aug-20 05:16 344 3 10.0
2019-Aug-20 05:02 350 2 10.0